Location: *
(37.5724°S, 58.0067°E)
Time: 02:52:29
(UTC+00:00)

CZ-4 R/B - Pass Details

Date: 23 January 2021
Orbit: 531 x 598 km, 97.7° (Epoch: 07 March)

Event Time Altitude Azimuth Distance (km) Brightness Sun altitude
Rises 15:51:55 0° 173° (S) 2,875 5.3 -5.2°
Reaches altitude 10° 15:54:08 10° 177° (S) 1,969 4.5 -5.6°
Maximum altitude 15:58:20 55° 254° (WSW) 733 2.4 -6.3°
Drops below altitude 10° 16:02:28 10° 332° (NNW) 1,943 4.1 -7.0°
Sets 16:04:39 0° 336° (NNW) 2,834 4.9 -7.4°
